Location: Poughquag
(41.6090°N, 73.6820°W)
Time: 10:30:10
(UTC-04:00)

Vanguard 2 Rocket - Visible Passes

Search period start: 09 August 2020 00:00
Search period end: 19 August 2020 00:00
Orbit: 556 x 3324 km, 32.9° (Epoch: 08 August)

Date Brightness Start Highest point End Pass type
(mag) Time Alt. Az. Time Alt. Az. Time Alt. Az.
09 Aug 10.0 01:20:17 10° W 01:27:10 24° WSW 01:27:10 24° WSW visible
09 Aug 8.9 22:05:34 10° W 22:15:36 52° S 22:24:09 29° SE visible
10 Aug 9.6 00:19:32 10° W 00:29:51 34° SW 00:29:51 34° SW visible
10 Aug 8.7 21:06:25 10° WSW 21:15:02 53° S 21:26:56 17° ESE visible
10 Aug 9.4 23:19:28 10° W 23:30:23 40° SSW 23:32:39 38° S visible
11 Aug 10.4 01:36:15 10° WSW 01:38:21 13° WSW 01:38:21 13° WSW visible
11 Aug 8.4 20:07:30 10° WSW 20:14:49 52° S 20:27:43 10° ESE visible
11 Aug 9.1 22:19:52 10° W 22:29:33 44° SSW 22:35:32 33° SSE visible
12 Aug 10.0 00:34:42 10° W 00:41:15 23° SW 00:41:15 23° SW visible
12 Aug 8.8 21:20:38 10° W 21:29:02 47° S 21:38:31 21° SE visible
12 Aug 9.6 23:34:13 10° W 23:44:14 30° SSW 23:44:14 30° SSW visible
13 Aug 8.5 20:21:39 10° WSW 20:28:50 48° S 20:41:19 10° ESE visible
13 Aug 9.3 22:34:23 10° W 22:43:31 35° SSW 22:47:19 31° S visible
14 Aug 10.3 00:51:09 10° WSW 00:53:03 13° WSW 00:53:03 13° WSW visible
14 Aug 9.0 21:35:01 10° W 21:43:03 39° SSW 21:50:27 23° SSE visible
14 Aug 9.9 23:49:40 10° WSW 23:56:12 21° SW 23:56:12 21° SW visible
15 Aug 8.6 20:35:56 10° WSW 20:42:53 41° S 20:53:40 12° SE visible
15 Aug 9.6 22:49:20 10° WSW 22:57:31 26° SSW 22:59:25 25° SSW visible
16 Aug 9.2 21:49:39 10° WSW 21:57:07 29° SSW 22:02:43 22° SSE visible
17 Aug 10.2 00:07:06 10° SW 00:08:28 11° SW 00:08:28 11° SW visible
17 Aug 8.9 20:50:24 10° WSW 20:56:59 33° SSW 21:06:04 13° SE visible
17 Aug 9.9 23:05:15 10° WSW 23:11:35 17° SSW 23:11:50 17° SSW visible
18 Aug 9.6 22:04:53 10° WSW 22:11:14 20° SSW 22:15:15 17° S visible
